Hovedside
METAR-TAF:

METAR-TAF

Lufthavner :

Villmanstrand lufthavn

Villmanstrand, Finland

breddegrad: 61-02-45N, lengdegrad: 028-08-55E, høyde over havet: 106 m

Gjeldene værobservasjon

Denne rapporten ble laget for 25 minutter siden, klokken 18:50 UTC
Vind 2 kt fra Sør-sørvest
Temperatur 15°C
Luftfuktighet 55%
Trykk 1024 hPa
Sikt 10 km eller mer
ingen skyer under 1500 m og ingen bygeskyer

METAR: EFLP 201850Z AUTO 21002KT CAVOK 15/06 Q1024

Tid: 22:15 (19:15 UTC)


TAF: fraværende

Værobservasjoner og værvarsel for over 4000 flyplasser (METAR- og TAF-rapporter).

Tilgjengelige stasjoner er representert av de røde og gule prikkene på kartet.

Hold musepekeren over prikken for å se navnet på stasjonen.

Klikk så for å se værobservasjoner og -varsler.

For å forandre kartet kan du klikke på den grønne knappen med svart kryss for å zoome inn, på den grønne knappen med strek for å zoome ut, eller på de grønne pilene for å se tilstøtende kart.


METAR-TAF: